Powrót do katalogu

COSMOS 2491 DEB

LostPO
NORAD 45108·DEBRIS·🇷🇺 Russia

Wystrzelony Dec 25, 2013 z Plesetsk Cosmodrome

Loading…

Następne Przeloty (najbliższe 24 godziny)

TLE

NieaktualneSource: Space-Track

Epoka: Aug 4, 2020, 06:39 UTC

1 45108U 13076X   20217.27709459 -.00002938  00000-0 -25933-1 0  9997
2 45108  82.4909  68.9853 0062004 107.2343 253.5526 12.27058637 25166

Śledź COSMOS 2491 DEB w czasie rzeczywistym z AllMySat

Download on the App Store